EN

Hourly Weather Bolshoe Losvido

Today, 27 October, Tuesday

Time Temperature Precipitation Wind Pressure Humidity
00:00 +7°C° 0 mm 4 mps 747 mmHg 89%
01:00 +6°C° 0 mm 4 mps 747 mmHg 89%
02:00 +6°C° 0 mm 4 mps 747 mmHg 89%
03:00 +6°C° 0 mm 4 mps 747 mmHg 89%
04:00 +6°C° 0 mm 4 mps 747 mmHg 89%
05:00 +6°C° 0 mm 4 mps 747 mmHg 89%
06:00 +6°C° 0 mm 4 mps 747 mmHg 88%
07:00 +6°C° 0 mm 5 mps 747 mmHg 87%
08:00 +6°C° 0 mm 5 mps 747 mmHg 87%
09:00 +7°C° 0 mm 5 mps 747 mmHg 84%
10:00 +8°C° 0 mm 5 mps 747 mmHg 80%
11:00 +9°C° 0 mm 5 mps 747 mmHg 77%
12:00 +9°C° 0 mm 5 mps 747 mmHg 76%
13:00 +10°C° 0 mm 5 mps 747 mmHg 76%
14:00 +10°C° 0 mm 5 mps 747 mmHg 75%
15:00 +10°C° 0 mm 5 mps 747 mmHg 78%
16:00 +9°C° 0 mm 5 mps 747 mmHg 81%
17:00 +8°C° 0 mm 4 mps 747 mmHg 84%
18:00 +8°C° 0 mm 4 mps 747 mmHg 85%
19:00 +8°C° 0 mm 5 mps 747 mmHg 85%
20:00 +8°C° 0 mm 5 mps 747 mmHg 86%
21:00 +7°C° 0 mm 5 mps 747 mmHg 87%
22:00 +7°C° 0 mm 4 mps 746 mmHg 87%
23:00 +7°C° 0 mm 4 mps 746 mmHg 88%

Tomorrow, 28 October, Wednesday

Time Temperature Precipitation Wind Pressure Humidity
00:00 +7°C° 0 mm 4 mps 746 mmHg 89%
01:00 +7°C° 0 mm 4 mps 746 mmHg 91%
02:00 +7°C° 0 mm 4 mps 746 mmHg 92%
03:00 +6°C° 0 mm 4 mps 746 mmHg 93%
04:00 +6°C° 0 mm 4 mps 746 mmHg 93%
05:00 +6°C° 0 mm 4 mps 746 mmHg 94%
06:00 +6°C° 0 mm 4 mps 746 mmHg 94%
07:00 +6°C° 0 mm 4 mps 746 mmHg 94%
08:00 +6°C° 0 mm 4 mps 747 mmHg 94%
09:00 +7°C° 0 mm 4 mps 747 mmHg 91%
10:00 +10°C° 0 mm 4 mps 747 mmHg 88%
11:00 +11°C° 0 mm 3 mps 747 mmHg 85%
12:00 +11°C° 0 mm 3 mps 747 mmHg 84%
13:00 +12°C° 0 mm 3 mps 747 mmHg 82%
14:00 +13°C° 0 mm 3 mps 747 mmHg 80%
15:00 +12°C° 0 mm 3 mps 747 mmHg 84%
16:00 +11°C° 0 mm 3 mps 747 mmHg 88%
17:00 +10°C° 0 mm 3 mps 747 mmHg 92%
18:00 +10°C° 0 mm 3 mps 747 mmHg 93%
19:00 +10°C° 0 mm 3 mps 747 mmHg 93%
20:00 +8°C° 0 mm 4 mps 747 mmHg 94%
21:00 +8°C° 0 mm 4 mps 747 mmHg 94%
22:00 +8°C° 0 mm 4 mps 747 mmHg 94%
23:00 +8°C° 0 mm 4 mps 747 mmHg 94%

Day after tomorrow, 29 October, Thursday

Time Temperature Precipitation Wind Pressure Humidity
00:00 +9°C° 0 mm 3 mps 747 mmHg 94%
01:00 +8°C° 0 mm 3 mps 747 mmHg 93%
02:00 +8°C° 0 mm 3 mps 747 mmHg 93%
03:00 +8°C° 0 mm 3 mps 746 mmHg 92%
04:00 +8°C° 0 mm 3 mps 746 mmHg 92%
05:00 +7°C° 0 mm 3 mps 746 mmHg 91%
06:00 +7°C° 0 mm 3 mps 746 mmHg 90%
07:00 +7°C° 0 mm 3 mps 746 mmHg 89%
08:00 +7°C° 0 mm 3 mps 746 mmHg 88%
09:00 +8°C° 0 mm 3 mps 746 mmHg 84%
10:00 +8°C° 0 mm 4 mps 746 mmHg 81%
11:00 +10°C° 0 mm 4 mps 746 mmHg 78%
12:00 +10°C° 0 mm 4 mps 745 mmHg 76%
13:00 +11°C° 0 mm 3 mps 745 mmHg 75%
14:00 +11°C° 0 mm 3 mps 745 mmHg 74%
15:00 +11°C° 0 mm 3 mps 745 mmHg 77%
16:00 +10°C° 0 mm 3 mps 744 mmHg 80%
17:00 +9°C° 0 mm 2 mps 744 mmHg 83%
18:00 +9°C° 0 mm 2 mps 744 mmHg 84%
19:00 +9°C° 0 mm 2 mps 744 mmHg 85%
20:00 +9°C° 0 mm 2 mps 744 mmHg 86%
21:00 +9°C° 0 mm 2 mps 744 mmHg 87%
22:00 +9°C° 0 mm 2 mps 744 mmHg 88%
23:00 +9°C° 0 mm 2 mps 744 mmHg 90%

30 October, Friday

Time Temperature Precipitation Wind Pressure Humidity
00:00 +10°C° 0 mm 1 mps 743 mmHg 92%
01:00 +9°C° 0 mm 1 mps 743 mmHg 94%
02:00 +9°C° 0 mm 1 mps 743 mmHg 96%
03:00 +9°C° 0 mm 1 mps 743 mmHg 96%
04:00 +8°C° 0 mm 1 mps 743 mmHg 96%
05:00 +8°C° 0 mm 1 mps 743 mmHg 97%
06:00 +8°C° 0 mm 1 mps 743 mmHg 96%
07:00 +8°C° 0 mm 1 mps 744 mmHg 96%
08:00 +8°C° 0 mm 1 mps 744 mmHg 95%
09:00 +9°C° 0 mm 1 mps 744 mmHg 90%
10:00 +10°C° 0 mm 1 mps 744 mmHg 85%
11:00 +11°C° 0 mm 1 mps 744 mmHg 80%
12:00 +11°C° 0 mm 1 mps 744 mmHg 79%
13:00 +11°C° 0 mm 1 mps 744 mmHg 77%
14:00 +11°C° 0 mm 1 mps 744 mmHg 76%
15:00 +11°C° 0 mm 1 mps 744 mmHg 79%
16:00 +10°C° 0 mm 1 mps 744 mmHg 83%
17:00 +8°C° 0 mm 0 mps 744 mmHg 87%
18:00 +9°C° 0 mm 1 mps 745 mmHg 88%
19:00 +9°C° 0 mm 1 mps 745 mmHg 88%
20:00 +9°C° 0 mm 1 mps 745 mmHg 89%
21:00 +9°C° 0.1 mm 1 mps 745 mmHg 90%
22:00 +9°C° 0.1 mm 1 mps 745 mmHg 91%
23:00 +9°C° 0.1 mm 1 mps 745 mmHg 92%

31 October, Saturday

Time Temperature Precipitation Wind Pressure Humidity
00:00 +9°C° 0.1 mm 1 mps 746 mmHg 93%
01:00 +9°C° 0.1 mm 1 mps 746 mmHg 93%
02:00 +9°C° 0.1 mm 1 mps 746 mmHg 94%
03:00 +9°C° 0.1 mm 1 mps 747 mmHg 94%
04:00 +7°C° 0.1 mm 2 mps 747 mmHg 94%
05:00 +7°C° 0.1 mm 2 mps 747 mmHg 94%
06:00 +7°C° 0 mm 2 mps 748 mmHg 95%
07:00 +6°C° 0 mm 2 mps 748 mmHg 95%
08:00 +6°C° 0 mm 2 mps 749 mmHg 96%
09:00 +7°C° 0 mm 2 mps 749 mmHg 91%
10:00 +8°C° 0 mm 2 mps 750 mmHg 86%
11:00 +9°C° 0 mm 3 mps 751 mmHg 81%
12:00 +9°C° 0 mm 3 mps 751 mmHg 79%
13:00 +10°C° 0 mm 3 mps 751 mmHg 78%
14:00 +10°C° 0 mm 3 mps 751 mmHg 76%
15:00 +9°C° 0 mm 3 mps 752 mmHg 81%
16:00 +8°C° 0 mm 2 mps 752 mmHg 86%
17:00 +7°C° 0 mm 2 mps 752 mmHg 92%
18:00 +7°C° 0 mm 2 mps 753 mmHg 93%
19:00 +6°C° 0 mm 2 mps 753 mmHg 94%
20:00 +6°C° 0 mm 2 mps 754 mmHg 95%
21:00 +5°C° 0 mm 2 mps 754 mmHg 96%
22:00 +5°C° 0 mm 2 mps 754 mmHg 96%
23:00 +5°C° 0 mm 2 mps 754 mmHg 97%

1 November, Sunday

Time Temperature Precipitation Wind Pressure Humidity
00:00 +5°C° 0 mm 2 mps 754 mmHg 96%
01:00 +6°C° 0 mm 1 mps 755 mmHg 96%
02:00 +6°C° 0 mm 1 mps 755 mmHg 96%
03:00 +6°C° 0 mm 1 mps 755 mmHg 95%
04:00 +6°C° 0 mm 1 mps 755 mmHg 94%
05:00 +6°C° 0 mm 1 mps 755 mmHg 94%
06:00 +6°C° 0 mm 1 mps 755 mmHg 93%
07:00 +6°C° 0 mm 1 mps 755 mmHg 92%
08:00 +6°C° 0 mm 1 mps 755 mmHg 91%
09:00 +7°C° 0 mm 1 mps 756 mmHg 89%
10:00 +7°C° 0 mm 1 mps 756 mmHg 86%
11:00 +8°C° 0 mm 1 mps 756 mmHg 84%
12:00 +8°C° 0 mm 1 mps 756 mmHg 81%
13:00 +9°C° 0 mm 1 mps 755 mmHg 78%
14:00 +9°C° 0 mm 1 mps 755 mmHg 75%
15:00 +8°C° 0 mm 1 mps 755 mmHg 80%
16:00 +7°C° 0 mm 1 mps 756 mmHg 84%
17:00 +6°C° 0 mm 1 mps 756 mmHg 89%
18:00 +6°C° 0 mm 1 mps 756 mmHg 90%
19:00 +6°C° 0 mm 1 mps 756 mmHg 91%
20:00 +5°C° 0 mm 1 mps 756 mmHg 91%
21:00 +5°C° 0 mm 1 mps 756 mmHg 91%
22:00 +5°C° 0 mm 1 mps 756 mmHg 91%
23:00 +4°C° 0 mm 2 mps 756 mmHg 91%
Show more